TimeMDT,TemperatureF,Dew PointF,Humidity,Sea Level PressureIn,VisibilityMPH,Wind Direction,Wind SpeedMPH,Gust SpeedMPH,PrecipitationIn,Events,Conditions,WindDirDegrees,DateUTC
12:08 AM,41.0,19.4,42,30.26,10.0,North,9.2,17.3,N/A,,Scattered Clouds,350,2012-10-04 06:08:00
12:34 AM,41.0,19.4,42,30.26,10.0,SSE,3.5,-,N/A,,Clear,150,2012-10-04 06:34:00
12:49 AM,41.0,19.4,42,30.26,10.0,NW,8.1,-,N/A,,Clear,320,2012-10-04 06:49:00
1:15 AM,37.4,19.4,48,30.26,10.0,Calm,Calm,-,N/A,,Clear,0,2012-10-04 07:15:00
1:33 AM,37.4,19.4,48,30.27,10.0,Calm,Calm,-,N/A,,Clear,0,2012-10-04 07:33:00
1:50 AM,33.8,21.2,60,30.27,10.0,Calm,Calm,-,N/A,,Clear,0,2012-10-04 07:50:00
2:09 AM,35.6,21.2,56,30.27,10.0,ESE,3.5,-,N/A,,Clear,120,2012-10-04 08:09:00
2:34 AM,33.8,21.2,60,30.27,10.0,SE,3.5,-,N/A,,Clear,140,2012-10-04 08:34:00
2:45 AM,33.8,23.0,65,30.27,10.0,Calm,Calm,-,N/A,,Clear,0,2012-10-04 08:45:00
3:11 AM,32.0,23.0,69,30.27,10.0,South,3.5,-,N/A,,Clear,170,2012-10-04 09:11:00
3:35 AM,32.0,21.2,64,30.27,10.0,SSE,3.5,-,N/A,,Clear,150,2012-10-04 09:35:00
3:51 AM,32.0,21.2,64,30.27,10.0,Calm,Calm,-,N/A,,Clear,0,2012-10-04 09:51:00
4:09 AM,30.2,19.4,64,30.27,10.0,Calm,Calm,-,N/A,,Clear,0,2012-10-04 10:09:00
4:25 AM,30.2,19.4,64,30.27,10.0,Calm,Calm,-,N/A,,Clear,0,2012-10-04 10:25:00
4:55 AM,30.2,19.4,64,30.27,10.0,Calm,Calm,-,N/A,,Clear,0,2012-10-04 10:55:00
5:12 AM,30.2,19.4,64,30.28,10.0,Calm,Calm,-,N/A,,Scattered Clouds,0,2012-10-04 11:12:00
5:26 AM,30.2,19.4,64,30.27,10.0,Calm,Calm,-,N/A,,Mostly Cloudy,0,2012-10-04 11:26:00
5:55 AM,30.2,19.4,64,30.27,10.0,Calm,Calm,-,N/A,,Overcast,0,2012-10-04 11:55:00
6:15 AM,30.2,19.4,64,30.27,10.0,Calm,Calm,-,N/A,,Overcast,0,2012-10-04 12:15:00
6:33 AM,30.2,19.4,64,30.27,10.0,Calm,Calm,-,N/A,,Overcast,0,2012-10-04 12:33:00
6:51 AM,30.2,19.4,64,30.27,10.0,Calm,Calm,-,N/A,,Overcast,0,2012-10-04 12:51:00
7:14 AM,30.2,19.4,64,30.27,10.0,Calm,Calm,-,N/A,,Overcast,0,2012-10-04 13:14:00
7:34 AM,30.2,21.2,69,30.26,10.0,Calm,Calm,-,N/A,,Overcast,0,2012-10-04 13:34:00
7:51 AM,32.0,21.2,64,30.27,10.0,Calm,Calm,-,N/A,,Overcast,0,2012-10-04 13:51:00
8:10 AM,32.0,23.0,69,30.27,10.0,Calm,Calm,-,N/A,,Overcast,0,2012-10-04 14:10:00
8:30 AM,32.0,21.2,64,30.27,10.0,Calm,Calm,-,N/A,,Overcast,0,2012-10-04 14:30:00
8:50 AM,32.0,23.0,69,30.26,10.0,Calm,Calm,-,N/A,,Overcast,0,2012-10-04 14:50:00
9:06 AM,33.8,23.0,65,30.26,10.0,Calm,Calm,-,N/A,,Overcast,0,2012-10-04 15:06:00
9:33 AM,35.6,21.2,56,30.25,10.0,Calm,Calm,-,N/A,,Scattered Clouds,0,2012-10-04 15:33:00
9:54 AM,39.2,21.2,49,30.24,10.0,Calm,Calm,-,N/A,,Clear,0,2012-10-04 15:54:00
10:10 AM,41.0,21.2,45,30.24,10.0,Calm,Calm,-,N/A,,Clear,0,2012-10-04 16:10:00
10:35 AM,44.6,19.4,37,30.22,10.0,Calm,Calm,-,N/A,,Clear,0,2012-10-04 16:35:00
10:47 AM,46.4,17.6,32,30.22,10.0,SE,4.6,-,N/A,,Clear,140,2012-10-04 16:47:00
11:15 AM,50.0,17.6,28,30.20,10.0,East,3.5,-,N/A,,Scattered Clouds,100,2012-10-04 17:15:00
11:35 AM,53.6,17.6,24,30.19,10.0,East,3.5,-,N/A,,Scattered Clouds,80,2012-10-04 17:35:00
11:55 AM,55.4,14.0,20,30.18,10.0,Calm,Calm,-,N/A,,Scattered Clouds,0,2012-10-04 17:55:00
12:24 PM,59.0,12.2,16,30.16,10.0,NW,3.5,-,N/A,,Scattered Clouds,320,2012-10-04 18:24:00
12:55 PM,62.6,10.4,13,30.14,10.0,West,8.1,-,N/A,,Scattered Clouds,280,2012-10-04 18:55:00
1:09 PM,64.4,10.4,12,30.13,10.0,NNW,5.8,-,N/A,,Mostly Cloudy,330,2012-10-04 19:09:00
1:35 PM,62.6,8.6,12,30.12,10.0,WNW,5.8,-,N/A,,Mostly Cloudy,300,2012-10-04 19:35:00
1:45 PM,64.4,10.4,12,30.12,10.0,WNW,13.8,20.7,N/A,,Scattered Clouds,290,2012-10-04 19:45:00
2:14 PM,64.4,5.0,10,30.11,10.0,WNW,13.8,21.9,N/A,,Mostly Cloudy,290,2012-10-04 20:14:00
2:25 PM,62.6,3.2,9,30.11,10.0,WNW,15.0,20.7,N/A,,Scattered Clouds,300,2012-10-04 20:25:00
2:49 PM,64.4,5.0,10,30.11,10.0,WNW,12.7,25.3,N/A,,Clear,300,2012-10-04 20:49:00
3:15 PM,62.6,5.0,10,30.09,10.0,NNW,13.8,24.2,N/A,,Clear,330,2012-10-04 21:15:00
3:35 PM,60.8,5.0,11,30.10,10.0,NW,15.0,21.9,N/A,,Scattered Clouds,320,2012-10-04 21:35:00
3:50 PM,60.8,8.6,13,30.10,10.0,NW,12.7,21.9,N/A,,Scattered Clouds,320,2012-10-04 21:50:00
4:12 PM,60.8,8.6,13,30.09,10.0,NW,18.4,23.0,N/A,,Clear,320,2012-10-04 22:12:00
4:26 PM,62.6,6.8,11,30.09,10.0,NW,16.1,31.1,N/A,,Clear,320,2012-10-04 22:26:00
4:54 PM,60.8,8.6,13,30.09,10.0,NNW,19.6,28.8,N/A,,Clear,340,2012-10-04 22:54:00
5:06 PM,60.8,10.4,14,30.09,10.0,NNW,18.4,32.2,N/A,,Clear,340,2012-10-04 23:06:00
5:35 PM,59.0,10.4,15,30.10,10.0,NNW,18.4,25.3,N/A,,Clear,330,2012-10-04 23:35:00
5:49 PM,59.0,10.4,15,30.10,10.0,NNW,19.6,27.6,N/A,,Clear,330,2012-10-04 23:49:00
6:06 PM,59.0,10.4,15,30.10,10.0,NNW,13.8,27.6,N/A,,Clear,340,2012-10-05 00:06:00
6:29 PM,55.4,12.2,18,30.10,10.0,NNW,12.7,24.2,N/A,,Clear,340,2012-10-05 00:29:00
6:55 PM,53.6,12.2,19,30.11,10.0,NNW,9.2,18.4,N/A,,Clear,330,2012-10-05 00:55:00
7:06 PM,53.6,12.2,19,30.12,10.0,NW,6.9,-,N/A,,Clear,320,2012-10-05 01:06:00
7:31 PM,53.6,12.2,19,30.12,10.0,West,6.9,-,N/A,,Clear,270,2012-10-05 01:31:00
7:50 PM,51.8,10.4,19,30.12,10.0,North,10.4,-,N/A,,Scattered Clouds,350,2012-10-05 01:50:00
8:10 PM,50.0,10.4,20,30.12,10.0,ENE,6.9,-,N/A,,Scattered Clouds,70,2012-10-05 02:10:00
8:35 PM,48.2,10.4,22,30.12,10.0,East,4.6,-,N/A,,Scattered Clouds,100,2012-10-05 02:35:00
8:44 PM,46.4,10.4,23,30.12,10.0,Calm,Calm,-,N/A,,Scattered Clouds,0,2012-10-05 02:44:00
9:15 PM,48.2,12.2,24,30.12,10.0,Calm,Calm,-,N/A,,Mostly Cloudy,0,2012-10-05 03:15:00
9:26 PM,46.4,12.2,25,30.13,10.0,Calm,Calm,-,N/A,,Mostly Cloudy,0,2012-10-05 03:26:00
9:51 PM,42.8,12.2,29,30.13,10.0,Calm,Calm,-,N/A,,Overcast,0,2012-10-05 03:51:00
10:05 PM,42.8,12.2,29,30.12,10.0,Calm,Calm,-,N/A,,Mostly Cloudy,0,2012-10-05 04:05:00
10:34 PM,39.2,12.2,33,30.12,10.0,Calm,Calm,-,N/A,,Clear,0,2012-10-05 04:34:00
10:45 PM,41.0,12.2,31,30.12,10.0,Calm,Calm,-,N/A,,Clear,0,2012-10-05 04:45:00
11:05 PM,41.0,12.2,31,30.12,10.0,Calm,Calm,-,N/A,,Clear,0,2012-10-05 05:05:00
11:34 PM,37.4,14.0,38,30.12,10.0,ESE,3.5,-,N/A,,Clear,120,2012-10-05 05:34:00
11:45 PM,37.4,14.0,38,30.11,10.0,Calm,Calm,-,N/A,,Scattered Clouds,0,2012-10-05 05:45:00